[[{"header":{"parameterUnit":"m.s-1","parameterCategory":1,"la1":30.2991,"la2":30.254,"lo1":-89.0895,"lo2":-89.0444,"dy":0.0017,"dx":0.0017,"nx":28,"ny":28,"refTime":"2023-08-05T21:00:00:Z","depth":0,"parameterNumber":2,"parameterNumberName":"U-component_of_WINDS"},"data":[0,0,0,0,0,0,0,0,0,0,0,0,0,0,0,0,0,0,0,0,0,0,0,0,0,0,0,0,0,0,0,0,0,0,0,0,0,0,0,0,0,0,0,0,0,0,0,0,0,0,0,0,0,0,0,0,0,0,1.5838,1.5839,0,1.5929,1.593,1.5931,1.5933,1.5932,1.5931,1.5929,1.603,1.6034,1.6037,0,0,0,0,0,0,0,0,0,0,0,0,0,1.5673,1.5676,1.5838,1.5839,1.584,1.5929,1.593,1.5932,1.5933,1.5932,1.593,1.5929,1.6029,1.6033,1.6038,0,0,0,0,0,0,0,0,0,0,0,0,0,1.5753,1.5677,1.5838,1.5852,1.5854,1.5929,1.593,1.5932,1.5933,1.5932,1.593,1.5928,1.6027,1.6033,1.6038,1.6108,0,0,1.6055,1.6058,0,0,0,0,0,0,0,0,1.5748,1.5759,1.5848,1.5851,1.5853,1.5918,1.5909,1.5991,1.5934,1.5903,1.5929,1.5927,1.5994,1.6003,1.6024,1.6113,1.6117,1.6056,1.6059,1.6062,1.6063,0,0,0,0,0,0,0,1.5743,1.5755,1.5874,1.585,1.5853,1.5856,1.5865,1.5925,1.5958,1.5906,1.5906,1.5917,1.5996,1.6018,1.6026,1.6118,1.6056,1.6061,1.6064,1.6066,1.6272,1.6274,0,0,0,0,0,0,1.5733,1.575,1.5871,1.5877,1.5795,1.586,1.5871,1.5899,1.5957,1.5964,1.5918,1.5916,1.601,1.602,1.603,1.6117,1.6062,1.6067,1.607,1.627,1.6272,1.6275,0,0,0,0,0,0,1.573,1.5744,1.5868,1.5814,1.583,1.5865,1.5897,1.5902,1.5924,1.5966,1.5973,1.5935,1.6009,1.6022,1.6089,1.612,1.607,1.6075,1.6268,1.6271,1.6274,1.6291,0,0,0,0,0,0,1.5725,1.5743,1.5768,1.5814,1.5832,1.5923,1.5898,1.5905,1.5933,1.5932,1.5984,1.5991,1.6008,1.608,1.6094,1.6127,1.6079,1.6265,1.6269,1.6273,1.6288,1.6294,1.63,0,0,0,0,0,1.5719,1.577,1.5769,1.5783,1.5864,1.5924,1.5935,1.5952,1.5936,1.5963,1.599,1.5989,1.6114,1.6087,1.6103,1.6138,1.6263,1.6268,1.6272,1.6285,1.6293,1.63,0,0,0,0,0,0,1.5728,1.5776,1.5775,1.5842,1.5879,1.5924,1.5958,1.596,1.6004,1.6001,1.6023,1.6035,1.6102,1.6127,1.6095,1.621,1.6187,1.6195,1.6191,1.6199,1.6205,1.6198,1.6084,0,0,0,0,0,1.5737,1.578,1.5821,1.5876,1.5894,1.5923,1.595,1.596,1.6,1.6016,1.6048,1.6089,1.6138,1.617,1.6217,1.6291,1.6304,1.6323,1.6329,1.6334,1.6341,1.6385,1.6395,1.629,1.629,1.629,0,0,1.5758,1.5789,1.5815,1.5878,1.5908,1.5955,1.5936,1.5986,1.6021,1.6025,1.6089,1.6114,1.6162,1.6233,1.6266,1.6256,1.6373,1.634,1.6344,1.6348,1.6391,1.6401,1.641,1.6293,1.6293,1.6292,0,0,1.5819,1.5846,1.5896,1.5926,1.597,1.5989,1.6002,1.6047,1.6063,1.6128,1.6132,1.6176,1.6259,1.6293,1.6322,1.6398,1.64,1.6413,1.6445,1.6487,1.6495,1.6503,1.6532,1.6542,1.6419,1.6419,1.6419,0,1.5839,1.5907,1.5922,1.5971,1.6001,1.6004,1.6056,1.6085,1.6144,1.6165,1.6152,1.6258,1.629,1.637,1.6389,1.6411,1.6427,1.6407,1.6492,1.65,1.6508,1.6536,1.6546,1.6421,1.6421,1.642,1.642,0,1.5931,1.5978,1.6014,1.6068,1.6101,1.6152,1.6177,1.6209,1.6217,1.6239,1.6307,1.6345,1.6401,1.642,1.6429,1.6503,1.6496,1.6487,1.6465,1.6519,1.6546,1.6556,1.6423,1.6422,1.6422,1.6422,0,0,1.6,1.6063,1.6076,1.6102,1.6152,1.619,1.6242,1.6295,1.6323,1.6364,1.6411,1.6481,1.6474,1.6506,1.6519,1.6556,1.6616,1.6544,1.6545,1.6557,1.6703,1.671,1.6722,1.6618,1.662,1.6621,1.67,0,1.6068,1.6159,1.6175,1.6255,1.6301,1.6305,1.6351,1.6389,1.641,1.6454,1.648,1.653,1.6516,1.6535,1.6572,1.6601,1.6646,1.6596,1.6664,1.6666,1.6653,1.6736,1.6743,1.6816,1.6711,1.6712,1.6714,0,1.616,1.6201,1.6286,1.6331,1.6351,1.6392,1.6443,1.6483,1.6527,1.6541,1.6577,1.6586,1.6643,1.6617,1.6699,1.6664,1.6693,1.6712,1.6715,1.6724,1.6694,1.6749,1.6839,1.685,1.673,1.6729,1.6728,0,1.6204,1.6282,1.6343,1.6364,1.6418,1.6448,1.6472,1.6513,1.6545,1.659,1.6611,1.6663,1.6692,1.6734,1.6758,1.6736,1.6838,1.6814,1.6854,1.6853,1.6876,1.6875,1.6974,1.6892,1.6892,1.6892,1.6891,0,1.6279,1.6332,1.6363,1.6401,1.6461,1.6479,1.6539,1.6563,1.66,1.6645,1.6653,1.6695,1.6723,1.677,1.6789,1.6855,1.6868,1.6883,1.6888,1.6883,1.6882,1.6904,1.69,1.6895,1.6894,1.6893,1.6893,0,1.634,1.6363,1.643,1.6475,1.6488,1.653,1.6571,1.6609,1.6631,1.6688,1.6702,1.6738,1.6794,1.6821,1.6892,1.6905,1.698,1.6981,1.6965,1.6967,1.7006,1.7003,1.7125,1.7143,1.7047,1.7048,1.7048,0,1.6387,1.6427,1.6477,1.6506,1.6531,1.6578,1.661,1.6631,1.6664,1.6718,1.675,1.6806,1.6852,1.6942,1.6976,1.7031,1.7034,1.7073,1.7042,1.7037,1.7037,1.7035,1.704,1.7079,1.708,1.7081,1.7081,0,1.6469,1.6478,1.6523,1.6572,1.6609,1.6649,1.6689,1.6713,1.6741,1.6779,1.6835,1.687,1.6942,1.6998,1.7055,1.7084,1.7089,1.709,1.7103,1.7099,1.7089,1.7097,1.6982,1.7088,1.7087,1.7087,1.7086,1.7086,1.6525,1.6562,1.6603,1.6653,1.6684,1.6722,1.676,1.6787,1.6833,1.6891,1.6902,1.6962,1.7008,1.7084,1.7114,1.7164,1.7156,1.7173,1.7178,1.7183,1.7186,1.708,1.7175,1.7174,1.7174,1.7174,1.7174,0,1.661,1.6636,1.6682,1.6736,1.6776,1.6774,1.6819,1.6853,1.6905,1.6946,1.6991,1.7057,1.7112,1.715,1.7207,1.724,1.7244,1.7255,1.7253,1.726,1.7189,1.7173,1.7251,1.7251,1.7251,1.7251,1.7251,1.725,1.6658,1.672,1.6735,1.6814,1.6841,1.6899,1.6925,1.696,1.6993,1.7066,1.7111,1.7134,1.7175,1.7235,1.7287,1.7297,1.7319,1.733,1.734,1.7273,1.7265,1.7257,1.7243,1.7334,1.7334,1.7407,1.7408,1.7409]},{"header":{"parameterUnit":"m.s-1","parameterCategory":1,"la1":30.2991,"la2":30.254,"lo1":-89.0895,"lo2":-89.0444,"dy":0.0017,"dx":0.0017,"nx":28,"ny":28,"refTime":"2023-08-05T21:00:00:Z","depth":0,"parameterNumber":3,"parameterNumberName":"V-component_of_WINDS"},"data":[0,0,0,0,0,0,0,0,0,0,0,0,0,0,0,0,0,0,0,0,0,0,0,0,0,0,0,0,0,0,0,0,0,0,0,0,0,0,0,0,0,0,0,0,0,0,0,0,0,0,0,0,0,0,0,0,0,0,1.8643,1.8643,0,1.8709,1.871,1.871,1.8728,1.8727,1.8727,1.8727,1.8792,1.8794,1.8796,0,0,0,0,0,0,0,0,0,0,0,0,0,1.8526,1.8528,1.8643,1.8644,1.8644,1.8709,1.871,1.8711,1.8728,1.8727,1.8727,1.8726,1.8791,1.8794,1.8796,0,0,0,0,0,0,0,0,0,0,0,0,0,1.8583,1.8528,1.8643,1.8661,1.8663,1.8709,1.871,1.8711,1.8728,1.8727,1.8727,1.8726,1.879,1.8793,1.8796,1.8828,0,0,1.8806,1.8807,0,0,0,0,0,0,0,0,1.8579,1.8587,1.8657,1.866,1.8662,1.871,1.8692,1.875,1.8728,1.8703,1.8727,1.8726,1.8765,1.877,1.8784,1.8831,1.8834,1.8806,1.8808,1.881,1.881,0,0,0,0,0,0,0,1.8575,1.8584,1.8669,1.8658,1.8661,1.8664,1.8671,1.8703,1.8736,1.8705,1.8707,1.8714,1.8766,1.878,1.8785,1.8835,1.8806,1.8809,1.8811,1.8812,1.8906,1.8906,0,0,0,0,0,0,1.8569,1.8581,1.8667,1.8671,1.8619,1.8666,1.8675,1.8695,1.8736,1.8742,1.8715,1.8715,1.8775,1.8781,1.8788,1.8824,1.881,1.8813,1.8814,1.8905,1.8906,1.8906,0,0,0,0,0,0,1.8566,1.8576,1.8664,1.8626,1.8637,1.8669,1.8692,1.8697,1.8711,1.8743,1.8749,1.8724,1.8775,1.8783,1.8817,1.8827,1.8814,1.8817,1.8904,1.8905,1.8906,1.8899,0,0,0,0,0,0,1.8563,1.8575,1.8589,1.8626,1.8639,1.8694,1.8692,1.8698,1.8717,1.8718,1.8753,1.8759,1.8775,1.8812,1.882,1.8831,1.8819,1.8904,1.8905,1.8906,1.8899,1.89,1.8901,0,0,0,0,0,1.8559,1.8585,1.859,1.86,1.8658,1.8695,1.8702,1.8721,1.8718,1.8731,1.875,1.8758,1.8824,1.8815,1.8824,1.8836,1.8903,1.8904,1.8906,1.8899,1.89,1.8901,0,0,0,0,0,0,1.8549,1.8591,1.8596,1.8636,1.8662,1.8698,1.8715,1.8723,1.8749,1.8749,1.877,1.8778,1.8809,1.8826,1.8816,1.8866,1.8863,1.8867,1.8855,1.8856,1.8857,1.8852,1.8822,0,0,0,0,0,1.8552,1.8579,1.8614,1.8645,1.8658,1.8684,1.8701,1.8713,1.874,1.8751,1.8773,1.8798,1.8824,1.8841,1.8867,1.8901,1.8907,1.8913,1.8914,1.8915,1.8917,1.8933,1.8935,1.8911,1.8911,1.8911,0,0,1.8557,1.8583,1.86,1.8644,1.8665,1.8691,1.8693,1.8722,1.874,1.8755,1.8788,1.8804,1.8833,1.8866,1.8881,1.8881,1.8925,1.8917,1.8917,1.8919,1.8934,1.8937,1.8939,1.8912,1.8912,1.8911,0,0,1.858,1.8604,1.8631,1.8652,1.8683,1.87,1.8706,1.874,1.8752,1.8785,1.8795,1.8816,1.8862,1.8881,1.8897,1.8921,1.8928,1.8929,1.8935,1.8949,1.8951,1.8953,1.896,1.8962,1.8931,1.8931,1.8931,0,1.8583,1.8625,1.8644,1.8671,1.8689,1.8702,1.8728,1.8746,1.8785,1.8796,1.8794,1.8849,1.8869,1.8905,1.8911,1.8924,1.8929,1.8926,1.8949,1.8951,1.8953,1.896,1.8963,1.8931,1.8931,1.8931,1.8931,0,1.8625,1.8653,1.867,1.8706,1.8726,1.8752,1.8773,1.879,1.8799,1.8815,1.8846,1.8871,1.89,1.8909,1.8919,1.8945,1.8944,1.8946,1.8943,1.8955,1.8962,1.8964,1.8931,1.8931,1.8931,1.8931,0,0,1.8647,1.869,1.8696,1.8711,1.8745,1.8766,1.8791,1.882,1.8832,1.8857,1.8877,1.8913,1.8914,1.8931,1.8942,1.8955,1.897,1.8955,1.8956,1.8956,1.8997,1.8995,1.8998,1.8974,1.8975,1.8975,1.8994,0,1.8673,1.8719,1.8735,1.8773,1.8797,1.8808,1.8829,1.885,1.8865,1.8886,1.8901,1.8925,1.8926,1.8936,1.8949,1.8966,1.8978,1.8964,1.8991,1.8992,1.8983,1.9002,1.9,1.9017,1.8997,1.8997,1.8998,0,1.871,1.8734,1.8774,1.8801,1.8812,1.8831,1.8857,1.8877,1.89,1.8909,1.8927,1.8936,1.896,1.8955,1.8986,1.8976,1.8988,1.8997,1.8998,1.9001,1.8996,1.9004,1.9023,1.9025,1.9002,1.9002,1.9002,0,1.8719,1.8762,1.879,1.8803,1.8836,1.8848,1.8862,1.8885,1.89,1.8921,1.8931,1.8955,1.8968,1.8985,1.8999,1.8995,1.9028,1.9025,1.9035,1.9034,1.9042,1.9041,1.9062,1.905,1.905,1.905,1.905,0,1.8746,1.8769,1.8794,1.8812,1.8837,1.8853,1.8877,1.8892,1.8911,1.893,1.894,1.8957,1.8976,1.8994,1.9005,1.9028,1.9034,1.904,1.9043,1.9039,1.9038,1.9047,1.9046,1.9051,1.9051,1.905,1.905,0,1.8761,1.8779,1.881,1.8837,1.8845,1.8862,1.8884,1.89,1.8914,1.8937,1.8943,1.8964,1.8986,1.9002,1.903,1.9037,1.9061,1.9064,1.9054,1.9055,1.9063,1.9061,1.909,1.9094,1.9079,1.908,1.908,0,1.8777,1.8795,1.8823,1.8836,1.885,1.8872,1.8887,1.8902,1.8917,1.8942,1.8954,1.8977,1.8996,1.903,1.9047,1.9067,1.9071,1.9079,1.9074,1.9068,1.9069,1.9067,1.9068,1.908,1.908,1.908,1.908,0,1.8802,1.8809,1.883,1.8853,1.887,1.889,1.8909,1.8919,1.8937,1.8952,1.8975,1.899,1.9017,1.9039,1.9061,1.9073,1.9079,1.9081,1.9084,1.908,1.9073,1.9075,1.9055,1.9081,1.9081,1.908,1.908,1.908,1.8816,1.8832,1.8853,1.8876,1.8891,1.8908,1.8923,1.8938,1.8957,1.8981,1.8989,1.9011,1.903,1.906,1.9072,1.9089,1.9089,1.9093,1.9095,1.9095,1.9094,1.907,1.9093,1.9093,1.9093,1.9093,1.9093,0,1.884,1.8854,1.8874,1.89,1.8917,1.8921,1.8941,1.8954,1.8974,1.8992,1.9009,1.9033,1.9053,1.907,1.909,1.91,1.9103,1.9104,1.9104,1.9106,1.9094,1.9089,1.9102,1.9102,1.9102,1.9102,1.9102,1.9102,1.8855,1.888,1.8889,1.892,1.8933,1.8956,1.8967,1.8981,1.8995,1.9022,1.9038,1.9049,1.9065,1.9086,1.9103,1.9108,1.9114,1.9115,1.9119,1.9108,1.9107,1.9106,1.9101,1.9116,1.9116,1.913,1.913,1.913]}]]